[[{"header":{"parameterUnit":"m.s-1","parameterCategory":1,"la1":30.2991,"la2":30.254,"lo1":-89.0895,"lo2":-89.0444,"dy":0.0017,"dx":0.0017,"nx":28,"ny":28,"refTime":"2024-05-12T03:00:00:Z","depth":0,"parameterNumber":2,"parameterNumberName":"U-component_of_WINDS"},"data":[0,0,0,0,0,0,0,0,0,0,0,0,0,0,0,0,0,0,0,0,0,0,0,0,0,0,0,0,0,0,0,0,0,0,0,0,0,0,0,0,0,0,0,0,0,0,0,0,0,0,0,0,0,0,0,0,0,0,-4.3406,-4.3407,0,-4.3503,-4.3504,-4.3505,-4.3506,-4.3505,-4.3504,-4.3503,-4.36,-4.3604,-4.3608,0,0,0,0,0,0,0,0,0,0,0,0,0,-4.3219,-4.3222,-4.3406,-4.3407,-4.3408,-4.3503,-4.3504,-4.3506,-4.3507,-4.3505,-4.3504,-4.3502,-4.3599,-4.3604,-4.3608,0,0,0,0,0,0,0,0,0,0,0,0,0,-4.3307,-4.3224,-4.3406,-4.342,-4.3422,-4.3503,-4.3504,-4.3506,-4.3507,-4.3505,-4.3503,-4.3502,-4.3598,-4.3603,-4.3609,-4.3681,0,0,-4.3626,-4.3628,0,0,0,0,0,0,0,0,-4.3302,-4.3313,-4.3417,-4.3419,-4.3422,-4.3491,-4.3474,-4.3565,-4.3507,-4.3475,-4.3503,-4.3501,-4.3565,-4.3574,-4.3596,-4.3685,-4.3689,-4.3626,-4.363,-4.3632,-4.3634,0,0,0,0,0,0,0,-4.3296,-4.3309,-4.3444,-4.3418,-4.3422,-4.3421,-4.3432,-4.3491,-4.3529,-4.3477,-4.3478,-4.3489,-4.3566,-4.359,-4.3598,-4.3691,-4.3626,-4.3631,-4.3635,-4.3637,-4.3843,-4.3845,0,0,0,0,0,0,-4.3287,-4.3304,-4.3441,-4.3447,-4.3356,-4.3426,-4.3438,-4.3471,-4.3529,-4.3536,-4.3491,-4.3489,-4.3582,-4.3592,-4.3602,-4.3688,-4.3632,-4.3638,-4.3641,-4.3841,-4.3843,-4.3846,0,0,0,0,0,0,-4.3283,-4.3299,-4.3437,-4.3376,-4.3394,-4.3431,-4.3468,-4.3473,-4.3497,-4.3539,-4.3545,-4.3509,-4.3581,-4.3594,-4.3661,-4.3692,-4.364,-4.3645,-4.3838,-4.3842,-4.3845,-4.3863,0,0,0,0,0,0,-4.3277,-4.3298,-4.3325,-4.3377,-4.3397,-4.3495,-4.347,-4.3477,-4.3507,-4.3506,-4.3557,-4.3564,-4.358,-4.3652,-4.3666,-4.3698,-4.365,-4.3836,-4.384,-4.3844,-4.3859,-4.3866,-4.3872,0,0,0,0,0,-4.3271,-4.3326,-4.3327,-4.3343,-4.3433,-4.3497,-4.3509,-4.3527,-4.351,-4.3538,-4.3565,-4.3562,-4.3687,-4.3659,-4.3675,-4.3709,-4.3834,-4.3839,-4.3843,-4.3857,-4.3865,-4.3871,0,0,0,0,0,0,-4.3277,-4.3333,-4.3334,-4.3408,-4.3448,-4.3497,-4.3533,-4.3535,-4.358,-4.3577,-4.3597,-4.3609,-4.3675,-4.37,-4.3668,-4.3781,-4.3758,-4.3766,-4.3763,-4.3771,-4.3777,-4.3768,-4.3654,0,0,0,0,0,-4.3288,-4.3336,-4.3382,-4.3443,-4.3463,-4.3495,-4.3524,-4.3534,-4.3576,-4.3593,-4.3624,-4.3664,-4.3712,-4.3743,-4.379,-4.3864,-4.3874,-4.3895,-4.3901,-4.3906,-4.3912,-4.3952,-4.3961,-4.3861,-4.3861,-4.3861,0,0,-4.3309,-4.3345,-4.3374,-4.3445,-4.3477,-4.3526,-4.3509,-4.3561,-4.3597,-4.36,-4.3665,-4.369,-4.3736,-4.3807,-4.3839,-4.3829,-4.3942,-4.3912,-4.3916,-4.3919,-4.3957,-4.3967,-4.3975,-4.3864,-4.3864,-4.3863,0,0,-4.3371,-4.3405,-4.3459,-4.3491,-4.354,-4.3561,-4.3574,-4.3624,-4.364,-4.3706,-4.3709,-4.3753,-4.3835,-4.3868,-4.3895,-4.3971,-4.397,-4.3986,-4.4017,-4.4055,-4.4063,-4.407,-4.4096,-4.4105,-4.3992,-4.3992,-4.3992,0,-4.3391,-4.3465,-4.3486,-4.3538,-4.3569,-4.3575,-4.3629,-4.366,-4.3721,-4.3742,-4.373,-4.3834,-4.3865,-4.3943,-4.3961,-4.3984,-4.3998,-4.3979,-4.4061,-4.4068,-4.4075,-4.4099,-4.4109,-4.3994,-4.3994,-4.3994,-4.3993,0,-4.3486,-4.3538,-4.3575,-4.3635,-4.367,-4.3723,-4.3751,-4.3784,-4.3793,-4.3815,-4.3881,-4.392,-4.3974,-4.3994,-4.4002,-4.4073,-4.4064,-4.4056,-4.4033,-4.4085,-4.4108,-4.4118,-4.3996,-4.3995,-4.3995,-4.3995,0,0,-4.3554,-4.3625,-4.3638,-4.3665,-4.372,-4.376,-4.3813,-4.3867,-4.3894,-4.3937,-4.3981,-4.4052,-4.4044,-4.4075,-4.4088,-4.4122,-4.4178,-4.411,-4.4111,-4.4119,-4.4256,-4.426,-4.4271,-4.4179,-4.4181,-4.4182,-4.4252,0,-4.3622,-4.3716,-4.3737,-4.3818,-4.3865,-4.3873,-4.3919,-4.3957,-4.398,-4.4023,-4.4048,-4.4096,-4.4084,-4.4103,-4.4137,-4.4164,-4.4205,-4.416,-4.4219,-4.422,-4.4204,-4.4283,-4.4288,-4.4351,-4.4261,-4.4263,-4.4264,0,-4.3712,-4.3757,-4.3844,-4.3892,-4.3912,-4.3954,-4.4004,-4.4046,-4.4089,-4.4103,-4.4138,-4.4147,-4.4202,-4.4178,-4.4254,-4.4222,-4.4248,-4.4265,-4.4268,-4.4272,-4.4243,-4.4287,-4.4372,-4.4381,-4.4279,-4.4278,-4.4276,0,-4.3751,-4.3833,-4.3895,-4.3918,-4.3977,-4.4005,-4.4031,-4.4073,-4.4104,-4.4148,-4.4168,-4.4218,-4.4245,-4.4283,-4.4305,-4.4286,-4.4379,-4.4357,-4.439,-4.439,-4.4407,-4.4405,-4.4495,-4.4428,-4.4428,-4.4428,-4.4427,0,-4.3823,-4.3875,-4.3913,-4.3951,-4.4009,-4.4032,-4.4089,-4.4115,-4.4152,-4.4195,-4.4205,-4.4244,-4.4272,-4.4316,-4.4334,-4.4392,-4.4405,-4.4417,-4.442,-4.4415,-4.4413,-4.443,-4.4425,-4.443,-4.443,-4.4429,-4.4429,0,-4.3874,-4.3903,-4.397,-4.402,-4.4034,-4.4075,-4.4117,-4.4154,-4.4177,-4.4231,-4.4245,-4.4281,-4.4332,-4.4359,-4.4423,-4.4435,-4.4501,-4.4503,-4.4486,-4.4487,-4.4518,-4.4514,-4.462,-4.4634,-4.456,-4.456,-4.4561,0,-4.3917,-4.3957,-4.4012,-4.4041,-4.4067,-4.4115,-4.4146,-4.4171,-4.4203,-4.4256,-4.4286,-4.4339,-4.4381,-4.4463,-4.4495,-4.4544,-4.4546,-4.458,-4.4553,-4.4546,-4.4544,-4.4541,-4.4544,-4.4584,-4.4584,-4.4585,-4.4585,0,-4.399,-4.4002,-4.4047,-4.4097,-4.4135,-4.4175,-4.4215,-4.4239,-4.427,-4.4305,-4.4358,-4.4392,-4.4458,-4.4509,-4.4561,-4.4586,-4.4591,-4.4594,-4.4604,-4.4597,-4.4585,-4.459,-4.4496,-4.4591,-4.459,-4.459,-4.4589,-4.4589,-4.4037,-4.4073,-4.4117,-4.4166,-4.4199,-4.4236,-4.4273,-4.4301,-4.4346,-4.4401,-4.4414,-4.4469,-4.4512,-4.4581,-4.4609,-4.4653,-4.4645,-4.466,-4.4664,-4.4666,-4.4667,-4.458,-4.4662,-4.4662,-4.4662,-4.4662,-4.4662,0,-4.4109,-4.4137,-4.4183,-4.4239,-4.4278,-4.428,-4.4324,-4.4357,-4.4405,-4.4445,-4.4487,-4.4548,-4.4598,-4.4634,-4.4684,-4.4712,-4.4715,-4.4724,-4.4721,-4.4727,-4.4671,-4.4657,-4.4721,-4.4721,-4.4721,-4.4721,-4.4721,-4.4721,-4.415,-4.421,-4.4227,-4.4304,-4.4332,-4.4387,-4.4412,-4.4446,-4.4477,-4.4544,-4.4586,-4.4609,-4.4647,-4.4701,-4.4746,-4.4756,-4.4773,-4.4782,-4.4791,-4.4737,-4.4731,-4.4725,-4.4711,-4.4786,-4.4786,-4.4842,-4.4843,-4.4843]},{"header":{"parameterUnit":"m.s-1","parameterCategory":1,"la1":30.2991,"la2":30.254,"lo1":-89.0895,"lo2":-89.0444,"dy":0.0017,"dx":0.0017,"nx":28,"ny":28,"refTime":"2024-05-12T03:00:00:Z","depth":0,"parameterNumber":3,"parameterNumberName":"V-component_of_WINDS"},"data":[0,0,0,0,0,0,0,0,0,0,0,0,0,0,0,0,0,0,0,0,0,0,0,0,0,0,0,0,0,0,0,0,0,0,0,0,0,0,0,0,0,0,0,0,0,0,0,0,0,0,0,0,0,0,0,0,0,0,6.0549,6.055,0,6.061,6.0611,6.0611,6.0544,6.0541,6.0539,6.0536,6.0593,6.0597,6.0601,0,0,0,0,0,0,0,0,0,0,0,0,0,6.0369,6.0372,6.0549,6.055,6.055,6.061,6.0611,6.0612,6.0544,6.0541,6.0538,6.0535,6.0592,6.0596,6.0601,0,0,0,0,0,0,0,0,0,0,0,0,0,6.044,6.0374,6.0549,6.0524,6.0523,6.061,6.0611,6.0612,6.0545,6.0541,6.0537,6.0534,6.059,6.0596,6.0602,6.0714,0,0,6.062,6.0622,0,0,0,0,0,0,0,0,6.0436,6.0447,6.0527,6.0526,6.0524,6.0565,6.0568,6.0646,6.0546,6.0536,6.0536,6.0532,6.0587,6.0593,6.0612,6.0717,6.0719,6.062,6.0624,6.0626,6.0628,0,0,0,0,0,0,0,6.0431,6.0444,6.0573,6.0528,6.0527,6.0508,6.0514,6.0582,6.0582,6.0537,6.0532,6.054,6.0585,6.0607,6.0613,6.072,6.062,6.0625,6.0629,6.0631,6.092,6.0924,0,0,0,0,0,0,6.043,6.044,6.0571,6.0575,6.047,6.0515,6.0521,6.0556,6.0581,6.0581,6.0544,6.0537,6.0599,6.0606,6.0615,6.0747,6.0626,6.0632,6.0635,6.0915,6.0921,6.0925,0,0,0,0,0,0,6.0426,6.0442,6.0568,6.0506,6.0521,6.0522,6.0561,6.0559,6.0581,6.0586,6.0585,6.0566,6.0596,6.0607,6.069,6.0748,6.0634,6.0639,6.0911,6.0917,6.0923,6.1013,0,0,0,0,0,0,6.0421,6.0441,6.0485,6.0508,6.0525,6.0645,6.0565,6.0563,6.0592,6.0584,6.0607,6.0607,6.0594,6.0682,6.0696,6.0754,6.0644,6.0905,6.0913,6.0921,6.1005,6.1022,6.1036,0,0,0,0,0,6.0415,6.0507,6.0488,6.0504,6.058,6.0648,6.0657,6.0642,6.0597,6.064,6.0644,6.0607,6.074,6.0691,6.0706,6.0767,6.0901,6.0911,6.092,6.0998,6.1019,6.1036,0,0,0,0,0,0,6.0489,6.0509,6.0488,6.0591,6.0619,6.0637,6.069,6.0664,6.0703,6.0694,6.0671,6.0677,6.0766,6.0775,6.072,6.0877,6.0813,6.0826,6.0867,6.0887,6.0902,6.0897,6.0649,0,0,0,0,0,6.0518,6.0573,6.0588,6.0676,6.0692,6.0689,6.0718,6.0704,6.0731,6.0742,6.0751,6.0778,6.0825,6.0857,6.0901,6.1007,6.101,6.1057,6.1072,6.1085,6.1095,6.1151,6.1171,6.0956,6.0956,6.0956,0,0,6.0576,6.0594,6.063,6.0692,6.0712,6.0768,6.0699,6.0762,6.0803,6.075,6.083,6.0839,6.0866,6.0962,6.1004,6.0972,6.1156,6.1097,6.1107,6.111,6.1163,6.1183,6.1201,6.0962,6.0961,6.096,0,0,6.0711,6.0732,6.0808,6.083,6.0862,6.0859,6.0878,6.0901,6.0905,6.0985,6.0947,6.0995,6.1078,6.1099,6.1121,6.1266,6.1233,6.1281,6.1361,6.1416,6.1433,6.1448,6.1498,6.1516,6.1292,6.1293,6.1293,0,6.0779,6.0865,6.0849,6.0915,6.0943,6.0901,6.0976,6.0998,6.1042,6.1061,6.1026,6.1129,6.1145,6.1244,6.128,6.1299,6.1318,6.1277,6.1432,6.1447,6.146,6.1508,6.1527,6.1298,6.1298,6.1297,6.1296,0,6.0946,6.1006,6.1063,6.1109,6.1143,6.1213,6.1207,6.1243,6.1227,6.1228,6.131,6.1328,6.1375,6.1398,6.1381,6.1495,6.1474,6.1436,6.1371,6.1487,6.1531,6.1549,6.1306,6.1304,6.1302,6.1301,0,0,6.1126,6.1165,6.1186,6.1206,6.1239,6.1284,6.1352,6.14,6.1431,6.1463,6.1518,6.1591,6.1556,6.1581,6.1566,6.1615,6.1727,6.1571,6.1571,6.1597,6.1851,6.1877,6.1899,6.1707,6.171,6.1713,6.1848,0,6.1261,6.1381,6.137,6.1483,6.1537,6.1499,6.1558,6.1584,6.1588,6.1633,6.1636,6.1687,6.1639,6.1653,6.17,6.1703,6.1777,6.1694,6.1755,6.1757,6.1747,6.1922,6.195,6.2077,6.1865,6.1868,6.187,0,6.1433,6.1473,6.1593,6.1618,6.164,6.1694,6.1736,6.1781,6.1809,6.1808,6.1837,6.1815,6.1882,6.1818,6.1909,6.1853,6.1878,6.1884,6.1888,6.1891,6.1819,6.1927,6.2117,6.2135,6.1897,6.1895,6.1893,0,6.155,6.1635,6.1717,6.1735,6.1767,6.1805,6.182,6.1845,6.1875,6.1912,6.1931,6.1975,6.1999,6.2033,6.2023,6.1977,6.2115,6.2051,6.2114,6.2115,6.2142,6.214,6.2336,6.2163,6.2163,6.2162,6.2162,0,6.17,6.1774,6.177,6.182,6.1901,6.1888,6.1968,6.1978,6.2,6.205,6.2021,6.2068,6.2053,6.2099,6.2092,6.2167,6.2178,6.2178,6.2175,6.2179,6.2179,6.2193,6.2183,6.2167,6.2166,6.2165,6.2165,0,6.1843,6.1844,6.1931,6.1955,6.1963,6.2021,6.204,6.2087,6.2089,6.2153,6.2167,6.217,6.2223,6.2217,6.2276,6.2271,6.2364,6.2351,6.2355,6.2351,6.2414,6.2407,6.2624,6.2651,6.2462,6.2464,6.2466,0,6.1938,6.1994,6.2025,6.2057,6.2075,6.2128,6.2158,6.2148,6.218,6.2218,6.2259,6.231,6.235,6.2436,6.2442,6.2486,6.2473,6.2546,6.2479,6.2482,6.2471,6.2467,6.2472,6.2558,6.256,6.2562,6.2563,0,6.2104,6.2102,6.2149,6.2196,6.2234,6.227,6.2303,6.2331,6.2323,6.2361,6.2416,6.2447,6.2508,6.2558,6.2601,6.2614,6.2587,6.2585,6.2601,6.2605,6.2604,6.2604,6.2388,6.2579,6.2577,6.2576,6.2575,6.2575,6.2225,6.2273,6.2302,6.2355,6.2379,6.2411,6.2455,6.2464,6.251,6.256,6.2551,6.2612,6.2639,6.2694,6.2711,6.2758,6.2731,6.2756,6.2761,6.2767,6.2774,6.26,6.2766,6.2765,6.2765,6.2765,6.2764,0,6.2388,6.2406,6.2455,6.2502,6.2544,6.2518,6.2553,6.2589,6.2644,6.2672,6.2712,6.2775,6.2824,6.2835,6.2881,6.2916,6.2905,6.2928,6.2924,6.2927,6.2796,6.2776,6.2936,6.2936,6.2936,6.2936,6.2936,6.2936,6.2478,6.2557,6.2559,6.265,6.2666,6.2728,6.275,6.2778,6.2801,6.2873,6.2914,6.2922,6.2942,6.299,6.3033,6.3035,6.3052,6.3081,6.3077,6.2954,6.2936,6.292,6.2901,6.3085,6.3085,6.3204,6.3205,6.3206]}]]